When you browse on this site, cookies collect data to enhance your experience and personalize the content and advertising you see.
Visit our Privacy Policy to learn more. By continuing to use the site, you agree to this use of cookies and data.

Meteo pe oră la Dzialyn

Astăzi, 19 Septembrie, Sâmbătă

Timp Temperatura Precipitaţii Vânt Presiune Umiditate
00:00 +10°C° 0 mm 2 m/s 756 mmHg 73%
01:00 +10°C° 0 mm 1 m/s 756 mmHg 74%
02:00 +10°C° 0 mm 1 m/s 756 mmHg 76%
03:00 +10°C° 0 mm 1 m/s 756 mmHg 77%
04:00 +9°C° 0 mm 1 m/s 755 mmHg 78%
05:00 +8°C° 0 mm 0 m/s 755 mmHg 79%
06:00 +10°C° 0 mm 1 m/s 755 mmHg 76%
07:00 +11°C° 0 mm 1 m/s 755 mmHg 72%
08:00 +12°C° 0 mm 1 m/s 755 mmHg 68%
09:00 +14°C° 0 mm 1 m/s 755 mmHg 59%
10:00 +15°C° 0 mm 1 m/s 755 mmHg 50%
11:00 +18°C° 0 mm 1 m/s 755 mmHg 42%
12:00 +18°C° 0 mm 2 m/s 755 mmHg 38%
13:00 +19°C° 0 mm 2 m/s 755 mmHg 35%
14:00 +20°C° 0 mm 2 m/s 754 mmHg 32%
15:00 +20°C° 0 mm 1 m/s 754 mmHg 35%
16:00 +20°C° 0 mm 1 m/s 754 mmHg 39%
17:00 +20°C° 0 mm 1 m/s 754 mmHg 42%
18:00 +18°C° 0 mm 1 m/s 753 mmHg 45%
19:00 +15°C° 0 mm 1 m/s 753 mmHg 47%
20:00 +14°C° 0 mm 1 m/s 753 mmHg 50%
21:00 +13°C° 0 mm 1 m/s 753 mmHg 53%
22:00 +12°C° 0 mm 1 m/s 753 mmHg 56%
23:00 +12°C° 0 mm 1 m/s 753 mmHg 58%

Mâine, 20 Septembrie, Duminică

Timp Temperatura Precipitaţii Vânt Presiune Umiditate
00:00 +11°C° 0 mm 1 m/s 753 mmHg 60%
01:00 +11°C° 0 mm 1 m/s 753 mmHg 61%
02:00 +11°C° 0 mm 1 m/s 753 mmHg 63%
03:00 +10°C° 0 mm 1 m/s 753 mmHg 64%
04:00 +10°C° 0 mm 1 m/s 753 mmHg 65%
05:00 +10°C° 0 mm 1 m/s 753 mmHg 66%
06:00 +10°C° 0 mm 1 m/s 753 mmHg 65%
07:00 +11°C° 0 mm 1 m/s 753 mmHg 64%
08:00 +12°C° 0 mm 1 m/s 753 mmHg 63%
09:00 +14°C° 0 mm 2 m/s 753 mmHg 58%
10:00 +15°C° 0 mm 2 m/s 753 mmHg 53%
11:00 +17°C° 0 mm 2 m/s 753 mmHg 48%
12:00 +18°C° 0 mm 3 m/s 753 mmHg 44%
13:00 +19°C° 0 mm 3 m/s 753 mmHg 41%
14:00 +20°C° 0 mm 3 m/s 752 mmHg 38%
15:00 +19°C° 0 mm 2 m/s 752 mmHg 42%
16:00 +19°C° 0 mm 2 m/s 752 mmHg 46%
17:00 +18°C° 0 mm 2 m/s 752 mmHg 49%
18:00 +17°C° 0 mm 2 m/s 752 mmHg 52%
19:00 +16°C° 0 mm 2 m/s 752 mmHg 55%
20:00 +13°C° 0 mm 3 m/s 752 mmHg 58%
21:00 +14°C° 0 mm 2 m/s 752 mmHg 59%
22:00 +14°C° 0 mm 2 m/s 752 mmHg 60%
23:00 +13°C° 0 mm 2 m/s 752 mmHg 61%

Poimâine, 21 Septembrie, Luni

Timp Temperatura Precipitaţii Vânt Presiune Umiditate
00:00 +13°C° 0 mm 2 m/s 752 mmHg 64%
01:00 +11°C° 0 mm 3 m/s 751 mmHg 66%
02:00 +11°C° 0 mm 3 m/s 751 mmHg 68%
03:00 +11°C° 0 mm 3 m/s 751 mmHg 68%
04:00 +12°C° 0 mm 2 m/s 751 mmHg 68%
05:00 +10°C° 0 mm 2 m/s 751 mmHg 68%
06:00 +12°C° 0 mm 2 m/s 751 mmHg 66%
07:00 +13°C° 0 mm 2 m/s 751 mmHg 64%
08:00 +13°C° 0 mm 2 m/s 751 mmHg 62%
09:00 +15°C° 0 mm 2 m/s 751 mmHg 57%
10:00 +17°C° 0 mm 2 m/s 751 mmHg 53%
11:00 +19°C° 0 mm 2 m/s 751 mmHg 49%
12:00 +20°C° 0 mm 2 m/s 751 mmHg 47%
13:00 +23°C° 0 mm 2 m/s 750 mmHg 45%
14:00 +24°C° 0 mm 2 m/s 750 mmHg 43%
15:00 +24°C° 0 mm 2 m/s 750 mmHg 45%
16:00 +23°C° 0 mm 1 m/s 750 mmHg 47%
17:00 +23°C° 0 mm 1 m/s 749 mmHg 49%
18:00 +21°C° 0 mm 1 m/s 749 mmHg 53%
19:00 +20°C° 0 mm 1 m/s 749 mmHg 57%
20:00 +18°C° 0 mm 1 m/s 749 mmHg 61%
21:00 +16°C° 0 mm 1 m/s 749 mmHg 62%
22:00 +16°C° 0 mm 1 m/s 749 mmHg 64%
23:00 +15°C° 0 mm 1 m/s 749 mmHg 65%

22 Septembrie, Marţi

Timp Temperatura Precipitaţii Vânt Presiune Umiditate
00:00 +15°C° 0 mm 2 m/s 749 mmHg 65%
01:00 +14°C° 0 mm 2 m/s 749 mmHg 66%
02:00 +14°C° 0 mm 2 m/s 749 mmHg 67%
03:00 +14°C° 0 mm 2 m/s 749 mmHg 68%
04:00 +14°C° 0 mm 2 m/s 749 mmHg 69%
05:00 +13°C° 0 mm 2 m/s 748 mmHg 70%
06:00 +14°C° 0 mm 2 m/s 749 mmHg 69%
07:00 +15°C° 0 mm 2 m/s 749 mmHg 67%
08:00 +16°C° 0 mm 2 m/s 749 mmHg 65%
09:00 +19°C° 0 mm 2 m/s 749 mmHg 58%
10:00 +21°C° 0 mm 2 m/s 749 mmHg 52%
11:00 +24°C° 0 mm 2 m/s 749 mmHg 46%
12:00 +25°C° 0 mm 3 m/s 748 mmHg 43%
13:00 +26°C° 0 mm 3 m/s 748 mmHg 41%
14:00 +27°C° 0 mm 3 m/s 748 mmHg 38%
15:00 +26°C° 0 mm 3 m/s 747 mmHg 42%
16:00 +26°C° 0 mm 3 m/s 747 mmHg 45%
17:00 +25°C° 0 mm 3 m/s 746 mmHg 49%
18:00 +22°C° 0 mm 3 m/s 746 mmHg 52%
19:00 +20°C° 0 mm 3 m/s 746 mmHg 56%
20:00 +19°C° 0 mm 3 m/s 746 mmHg 60%
21:00 +18°C° 0 mm 3 m/s 746 mmHg 62%
22:00 +18°C° 0 mm 3 m/s 746 mmHg 64%
23:00 +17°C° 0 mm 3 m/s 745 mmHg 66%

23 Septembrie, Miercuri

Timp Temperatura Precipitaţii Vânt Presiune Umiditate
00:00 +17°C° 0 mm 3 m/s 745 mmHg 67%
01:00 +16°C° 0 mm 3 m/s 745 mmHg 67%
02:00 +16°C° 0 mm 3 m/s 744 mmHg 68%
03:00 +14°C° 0 mm 3 m/s 744 mmHg 69%
04:00 +14°C° 0 mm 3 m/s 744 mmHg 70%
05:00 +14°C° 0 mm 3 m/s 744 mmHg 71%
06:00 +14°C° 0 mm 3 m/s 743 mmHg 69%
07:00 +16°C° 0 mm 3 m/s 743 mmHg 66%
08:00 +17°C° 0 mm 4 m/s 743 mmHg 64%
09:00 +19°C° 0 mm 4 m/s 743 mmHg 59%
10:00 +21°C° 0 mm 4 m/s 743 mmHg 53%
11:00 +23°C° 0 mm 4 m/s 743 mmHg 48%
12:00 +25°C° 0 mm 4 m/s 742 mmHg 45%
13:00 +27°C° 0 mm 5 m/s 742 mmHg 42%
14:00 +28°C° 0 mm 5 m/s 742 mmHg 39%
15:00 +27°C° 0 mm 5 m/s 742 mmHg 42%
16:00 +26°C° 0 mm 4 m/s 741 mmHg 45%
17:00 +26°C° 0 mm 4 m/s 741 mmHg 47%
18:00 +23°C° 0 mm 4 m/s 741 mmHg 49%
19:00 +21°C° 0 mm 4 m/s 741 mmHg 51%
20:00 +20°C° 0 mm 4 m/s 741 mmHg 52%
21:00 +19°C° 0 mm 4 m/s 741 mmHg 54%
22:00 +19°C° 0 mm 4 m/s 741 mmHg 55%
23:00 +18°C° 0 mm 3 m/s 741 mmHg 57%

24 Septembrie, Joi

Timp Temperatura Precipitaţii Vânt Presiune Umiditate
00:00 +18°C° 0 mm 3 m/s 741 mmHg 59%
01:00 +17°C° 0 mm 3 m/s 741 mmHg 60%
02:00 +17°C° 0 mm 3 m/s 741 mmHg 62%
03:00 +16°C° 0 mm 3 m/s 741 mmHg 64%
04:00 +16°C° 0 mm 2 m/s 741 mmHg 66%
05:00 +16°C° 0 mm 2 m/s 741 mmHg 68%
06:00 +16°C° 0.2 mm 2 m/s 741 mmHg 69%
07:00 +17°C° 0.2 mm 2 m/s 741 mmHg 69%
08:00 +18°C° 0.2 mm 2 m/s 741 mmHg 70%
09:00 +19°C° 0.2 mm 2 m/s 741 mmHg 64%
10:00 +21°C° 0.2 mm 2 m/s 742 mmHg 59%
11:00 +23°C° 0.2 mm 2 m/s 742 mmHg 54%
12:00 +24°C° 0 mm 2 m/s 742 mmHg 52%
13:00 +25°C° 0 mm 2 m/s 742 mmHg 50%
14:00 +26°C° 0 mm 3 m/s 742 mmHg 48%
15:00 +25°C° 0 mm 2 m/s 742 mmHg 51%
16:00 +25°C° 0 mm 2 m/s 741 mmHg 55%
17:00 +24°C° 0 mm 2 m/s 741 mmHg 58%
18:00 +23°C° 0.1 mm 2 m/s 741 mmHg 62%
19:00 +21°C° 0.1 mm 2 m/s 741 mmHg 67%
20:00 +20°C° 0.1 mm 2 m/s 741 mmHg 71%
21:00 +19°C° 0 mm 3 m/s 741 mmHg 74%
22:00 +18°C° 0 mm 3 m/s 741 mmHg 78%
23:00 +18°C° 0 mm 3 m/s 741 mmHg 81%
Arată mai mult